Torna al catalogo

IUS R/B(2)

AttivoGEO
NORAD 15545·ROCKET BODY·🇺🇸 United States

Lanciato Jan 24, 1985 da Cape Canaveral Space Force Station

Loading…

TLE

AggiornatoSource: Space-Track

Epoca: Sep 13, 2026, 19:48 UTC

1 15545U 85010D   26256.82561215  .00000119  00000-0  00000+0 0  9995
2 15545  12.5946 311.4141 0029889 304.2056  55.5103  1.00813893 27810

Traccia IUS R/B(2) in tempo reale con AllMySat

Download on the App Store